Home > Weather > Zielona Góra > Past weeks

Flag for Poland Weather for the Past 2 Weeks in Zielona Góra, Poland

Now
60 °F

Overcast.


Feels Like: 60 °F
Forecast: 43 / 61 °F
Wind: 3 mph from Southeast

Location: Zielona Gora

Current Time: Apr 30, 2016 at 5:40:13 PM

Latest Report: Apr 30, 2016 at 5:00 PM


Visibility: 28 mi

Pressure: 30.08 "Hg

Humidity: 38%

Dew Point: 34 °F

Location of Zielona GóraLocation

Historic Weather in Zielona Góra — Graph

°F

Zielona Góra Temperature Yesterday

Maximum temperature yesterday: 57 °F (at 6:00 PM)
Minimum temperature yesterday: 33 °F (at 5:00 AM)
Average temperature yesterday: 48 °F

High & Low Weather Summary for the Past Weeks

 TemperatureHumidityPressure
High61 °F (Apr 30, 2:00 PM)98% (Apr 15, 8:00 PM)30.36 "Hg (Apr 15, 8:00 PM)
Low32 °F (Apr 25, 6:00 AM)28% (Apr 29, 4:00 PM)29.50 "Hg (Apr 26, 1:00 PM)
Average46 °F65%29.91 "Hg
* Reported Apr 15 4:00 PM — Apr 30 4:00 PM, Zielona Góra, Weather by CustomWeather, © 2016

Note: Actual official high and low records may vary slightly from our data, if they occured in-between our weather recording intervals... More about our weather records

Advertising

Zielona Góra Weather History for the Previous 24 Hours

Scroll right to see more
 ConditionsComfort  
Time TempWeatherWind HumidityBarometerVisibility
4:00 PM
Sat, Apr 30
61 °FOvercast.5 mph33%30.08 "Hg25 mi
3:00 PM61 °FOvercast.5 mph33%30.09 "Hg25 mi
2:00 PM61 °FOvercast.5 mph35%30.09 "Hg25 mi
1:00 PM59 °FOvercast.3 mph37%30.11 "Hg22 mi
12:00 PM58 °FOvercast.5 mph40%30.11 "Hg22 mi
9:00 AM50 °FOvercast.3 mph51%30.14 "Hg9 mi
8:00 AM46 °FOvercast.3 mph56%30.14 "Hg9 mi
7:00 AM42 °FPartly sunny.3 mph63%30.14 "Hg14 mi
3:00 AM44 °FClear.2 mph54%30.14 "Hg25 mi
2:00 AM45 °FClear.2 mph53%30.14 "Hg25 mi
1:00 AM47 °FClear.3 mph47%30.14 "Hg25 mi
11:00 PM
Fri, Apr 29
48 °FClear.2 mph43%30.14 "Hg31 mi
10:00 PM49 °FClear.2 mph39%30.14 "Hg31 mi
9:00 PM49 °FPassing clouds.2 mph40%30.14 "Hg28 mi
8:00 PM53 °FPassing clouds.2 mph34%30.13 "Hg31 mi
7:00 PM55 °FPassing clouds.5 mph32%30.11 "Hg31 mi
6:00 PM57 °FScattered clouds.3 mph29%30.11 "Hg31 mi
5:00 PM57 °FScattered clouds.5 mph28%30.12 "Hg31 mi
Weather by CustomWeather, © 2016

See weather overviewHow to use our weather pages